Content
SEND FEEDBACK

Daily
Averages
Monthly
Summary
Russia

ST. PETERSBURG, RUSSIA


Home > Europe > Russia
Elevation: 66 feet     Latitude: 59 55N     Longitude: 030 15E

WEATHER
 
SELECT A DAY
Number of Records: 298,715;   Date Range: 7/1/96 - 7/7/14
 
SHARE

PRINT THIS DATA

[ ← Previous Day ]
WEATHER ALMANAC - FEBRUARY 13, 2013
[ Next Day → ]
[ °C ]   °F
Weather ElementAverageHighLow
Temperature32 °F34 °F (7:00 am)30.2 °F (10:30 pm)
Dewpoint28.1 °F30.2 °F (4:00 am)26 °F (10:00 am)
Humidity84.7 %93 % (4:00 am)66 % (10:00 am)
Barometer30.51 in30.60 in (7:00 pm)30.39 in (12:30 am)
Wind Speed7.3 mph11.2 mph (1:30 am)
Weather ElementAverage
Visibility6.2 mi
Wind DirectionESE (99.6 °)

Weather ElementTotal
Precipitation---
Heating Degree Days32.9 (Base 65)
Averaged from 55 records on February 13, 2013
WEATHER CONDITIONS BREAKOUT
WIND DIRECTION BREAKOUT
WEATHER BY HOUR - FEBRUARY 13, 2013
[ °C ]   °F
Local TimeTemperatureDewpointHumidityBarometerVisibilityWind DirectionWind SpeedGust SpeedPrecipitationEventsConditions
12:30 AM32.0 °F28.4 °F87 %30.39 in6.2 miEast (100°)8.9 mphOvercast
1:00 AM32.0 °F28.0 °F79 %30.41 in6.0 miEast (90°)4.5 mphOvercast
1:00 AM32.0 °F28.4 °F87 %30.39 in6.2 miESE (110°)8.9 mphOvercast
1:30 AM32.0 °F28.4 °F87 %30.39 in6.2 miESE (110°)11.2 mphOvercast
2:00 AM32.0 °F28.4 °F87 %30.39 in6.2 miESE (110°)8.9 mphOvercast
2:30 AM32.0 °F28.4 °F87 %30.42 in6.2 miESE (110°)6.7 mphOvercast
3:00 AM32.0 °F28.4 °F87 %30.42 in6.2 miESE (110°)6.7 mphOvercast
3:30 AM32.0 °F28.4 °F87 %30.42 in6.2 miEast (100°)6.7 mphSnowLight Snow
4:00 AM33.0 °F29.0 °F81 %30.45 in6.0 miEast (90°)2.2 mphSnowLight Snow
4:00 AM32.0 °F30.2 °F93 %30.42 in6.2 miEast (100°)6.7 mphOvercast
4:30 AM32.0 °F30.2 °F93 %30.42 in6.2 miEast (90°)8.9 mphOvercast
5:00 AM32.0 °F30.2 °F93 %30.45 in6.2 miESE (110°)6.7 mphOvercast
5:30 AM32.0 °F28.4 °F87 %30.45 in6.2 miEast (100°)6.7 mphOvercast
6:00 AM32.0 °F28.4 °F87 %30.45 in6.2 miEast (100°)6.7 mphOvercast
6:30 AM32.0 °F28.4 °F87 %30.48 in6.2 miEast (100°)6.7 mphOvercast
7:00 AM34.0 °F29.0 °F77 %30.49 in6.0 miEast (100°)2.2 mphPartly Cloudy
7:00 AM32.0 °F28.4 °F87 %30.48 in6.2 miEast (100°)6.7 mphOvercast
7:30 AM32.0 °F28.4 °F87 %30.48 in6.2 miESE (110°)6.7 mphOvercast
8:00 AM32.0 °F28.4 °F87 %30.48 in6.2 miEast (100°)6.7 mphOvercast
8:30 AM32.0 °F28.4 °F87 %30.48 in6.2 miEast (100°)8.9 mphOvercast
9:00 AM32.0 °F28.4 °F87 %30.48 in6.2 miEast (100°)8.9 mphOvercast
9:30 AM32.0 °F28.4 °F87 %30.48 in6.2 miEast (100°)8.9 mphOvercast
10:00 AM33.0 °F26.0 °F66 %30.52 in6.0 miENE (70°)4.5 mphPartly Cloudy
10:00 AM32.0 °F28.4 °F87 %30.51 in6.2 miEast (100°)6.7 mphOvercast
10:30 AM32.0 °F28.4 °F87 %30.51 in6.2 miEast (100°)8.9 mphOvercast
11:00 AM32.0 °F28.4 °F87 %30.51 in6.2 miEast (100°)8.9 mphOvercast
11:30 AM32.0 °F28.4 °F87 %30.51 in6.2 miEast (100°)8.9 mphOvercast
12:00 PM32.0 °F28.4 °F87 %30.54 in6.2 miEast (100°)8.9 mphOvercast
12:30 PM32.0 °F28.4 °F87 %30.54 in6.2 miEast (100°)8.9 mphOvercast
1:00 PM33.0 °F29.0 °F79 %30.56 in6.0 miSE (140°)4.5 mphMostly Cloudy
1:00 PM32.0 °F28.4 °F87 %30.54 in6.2 miEast (100°)8.9 mphOvercast
1:30 PM32.0 °F28.4 °F87 %30.54 in6.2 miEast (100°)8.9 mphOvercast
2:00 PM32.0 °F28.4 °F87 %30.54 in6.2 miEast (100°)8.9 mphOvercast
2:30 PM32.0 °F28.4 °F87 %30.54 in6.2 miEast (100°)8.9 mphOvercast
3:00 PM32.0 °F28.4 °F87 %30.54 in6.2 miEast (100°)8.9 mphOvercast
3:30 PM32.0 °F28.4 °F87 %30.57 in6.2 miEast (100°)8.9 mphOvercast
4:00 PM33.0 °F29.0 °F77 %30.58 in6.0 miESE (120°)4.5 mphMostly Cloudy
4:00 PM32.0 °F28.4 °F87 %30.57 in6.2 miEast (100°)8.9 mphOvercast
4:30 PM32.0 °F28.4 °F87 %30.57 in6.2 miEast (100°)8.9 mphOvercast
5:00 PM32.0 °F28.4 °F87 %30.57 in6.2 miEast (90°)8.9 mphOvercast
5:30 PM33.8 °F28.4 °F81 %30.57 in6.2 miEast (90°)8.9 mphOvercast
6:00 PM32.0 °F28.4 °F87 %30.57 in6.2 miEast (90°)8.9 mphOvercast
6:30 PM32.0 °F28.4 °F87 %30.57 in6.2 miEast (100°)8.9 mphOvercast
7:00 PM33.0 °F28.0 °F74 %30.60 in6.0 miEast (90°)4.5 mphOvercast
7:00 PM32.0 °F26.6 °F80 %30.57 in6.2 miEast (90°)6.7 mphOvercast
7:30 PM32.0 °F26.6 °F80 %30.57 in6.2 miEast (90°)8.9 mphOvercast
8:00 PM32.0 °F26.6 °F80 %30.57 in6.2 miEast (90°)11.2 mphOvercast
8:30 PM32.0 °F26.6 °F80 %30.57 in6.2 miEast (80°)4.5 mphOvercast
9:00 PM32.0 °F26.6 °F80 %30.57 in6.2 miEast (90°)6.7 mphOvercast
9:30 PM32.0 °F26.6 °F80 %30.57 in6.2 miEast (90°)4.5 mphOvercast
10:00 PM31.0 °F26.0 °F76 %30.60 in6.0 miSE (140°)4.5 mphOvercast
10:00 PM32.0 °F26.6 °F80 %30.57 in6.2 miEast (90°)6.7 mphOvercast
10:30 PM30.2 °F26.6 °F86 %30.57 in6.2 miEast (90°)4.5 mphOvercast
11:00 PM30.2 °F26.6 °F86 %30.60 in6.2 miEast (90°)4.5 mphOvercast
11:30 PM30.2 °F26.6 °F86 %30.60 in6.2 miESE (110°)6.7 mphOvercast
Hourly data recorded from ULLI, located miles away from St. Petersburg, Russia







STORIES FROM OUR PARTNERS